Terug naar catalogus

STARLINK-33973

ActiefCommunicatieVLEO
NORAD 63894·PAYLOAD·🇺🇸 United States

Gelanceerd May 10, 2025 vanaf Cape Canaveral Space Force Station

Loading…

Volgende Passages (komende 24 uur)

TLE

VersSource: CelesTrak SupGP

Epoch: Sep 15, 2026, 03:07 UTC

1 63894C 25095E   26258.13034722 -.00021165  00000+0 -76683-3 0  2583
2 63894  43.0027 185.9494 0001420 273.1690 137.9890 15.27578969    10

Volg STARLINK-33973 in realtime met AllMySat

Download on the App Store